Vertical_Velocity
-0 -0 -0 -0 -0 -0 -0 -1 -1 -1 -1 -0 -1 -1 -1 -1 -2 -2 -3 -3 -3 -3 -3 -3 -2 -2 -2 -1 -1 -1 -1 -1 -1 -1 -1 -1 -1 -2 -2 -2 -3 -3 -3 -2 -1 -1 -1 -1 -2 -1 -1 -1 -0 -1 -1 -2 -2 -3 -3 -3 -4 -4 -4 -3 -2 -2 -2 -2 -2
-0 -0 -0 -0 -0 -0 -0 -0 -1 -1 -0 -1 -1 -1 -1 -1 -2 -2 -3 -3 -3 -3 -3 -3 -2 -2 -2 -2 -1 -1 -1 -1 -1 -1 -1 -1 -1 -2 -2 -2 -2 -2 -2 -2 -1 -1 -1 -1 -1 -1 -1 -1 -0 -1 -1 -1 -2 -2 -3 -3 -3 -4 -4 -3 -2 -2 -1 -2 -2
-0 -0 -0 -0 -0 -0 -0 -0 -0 -0 -0 -1 -1 -1 -1 -1 -1 -2 -2 -2 -3 -3 -3 -3 -3 -2 -1 -1 -1 -1 -1 -1 -1 -2 -2 -2 -2 -2 -2 -2 -2 -2 -2 -2 -1 -1 -0 -1 -1 -1 -1 -1 -0 -1 -1 -1 -2 -2 -2 -2 -3 -3 -4 -3 -2 -1 -1 -1 -1
-0 -0 -0 -0 -0 -0 -0 -0 -0 -0 -0 -0 -0 -1 -1 -1 -1 -2 -2 -2 -3 -3 -3 -3 -3 -2 -2 -1 -1 -1 -1 -1 -1 -1 -1 -2 -1 -2 -2 -2 -3 -3 -3 -2 -2 -1 -1 -0 -0 -0 -0 -0 -0 -0 -0 -1 -1 -1 -2 -2 -2 -3 -4 -4 -3 -1 -1 -0 -0
-0 -0 -0 -0 -0 -0 -0 -0 -0 -0 -0 -0 -0 -1 -1 -1 -1 -2 -2 -2 -2 -3 -3 -3 -3 -2 -2 -1 -1 -1 -1 -1 -1 -1 -1 -2 -1 -2 -2 -2 -3 -3 -3 -2 -2 -1 -1 -1 -0 -0 -0 -0 0 0 0 0 -0 -1 -2 -2 -2 -3 -4 -5 -4 -2 -1 -0 0
-0 -0 -0 -0 0 -0 -0 0 0 -0 -0 -0 -0 -1 -1 -1 -1 -2 -2 -2 -2 -3 -3 -3 -3 -3 -2 -2 -2 -1 -1 -1 -1 -1 -1 -1 -2 -2 -2 -2 -3 -3 -3 -3 -2 -2 -1 -1 -1 -1 -0 -0 -0 0 0 1 -0 -1 -2 -2 -3 -3 -4 -5 -4 -3 -1 -0 -0
-0 -0 -0 -0 -0 0 0 0 0 0 0 -0 -0 -1 -1 -1 -1 -1 -2 -2 -2 -2 -3 -3 -3 -3 -3 -2 -2 -2 -1 -1 -1 -1 -1 -1 -1 -1 -2 -2 -2 -3 -3 -3 -3 -2 -2 -1 -1 -1 -1 -1 -1 -0 0 0 0 -0 -1 -2 -3 -3 -4 -4 -4 -4 -3 -1 -0
-0 -0 -0 -0 -0 0 0 0 0 0 -0 -0 -0 -1 -1 -1 -1 -2 -2 -2 -2 -2 -3 -3 -3 -3 -3 -2 -2 -2 -1 -1 -1 -1 -1 -1 -1 -1 -1 -2 -2 -3 -3 -3 -3 -3 -2 -2 -1 -1 -1 -1 -1 -1 -0 0 -0 -0 -1 -2 -3 -3 -3 -4 -4 -4 -4 -3 -1
-0 -0 -0 0 0 0 0 0 0 0 0 -0 -0 -1 -1 -1 -1 -1 -2 -2 -2 -2 -2 -3 -3 -3 -3 -3 -2 -2 -2 -1 -1 -1 -1 -1 -1 -1 -1 -1 -2 -3 -3 -3 -3 -2 -2 -2 -1 -1 -1 -1 -1 -0 -0 -0 -0 -0 -1 -2 -2 -3 -3 -3 -3 -4 -4 -4 -3
-0 -0 -0 0 -0 0 0 0 0 0 0 -0 -0 -0 -1 -1 -1 -1 -2 -2 -2 -2 -2 -2 -3 -3 -3 -3 -3 -2 -2 -2 -1 -1 -1 -1 -1 -1 -1 -1 -2 -2 -3 -3 -3 -2 -2 -2 -2 -1 -1 -0 -0 -0 -0 -0 0 -0 -1 -1 -2 -3 -3 -3 -3 -4 -4 -4 -3
-0 -0 -0 0 -0 0 0 1 0 0 0 0 -0 -0 -1 -1 -1 -1 -2 -2 -2 -2 -2 -2 -2 -3 -3 -3 -3 -2 -2 -2 -1 -1 -1 -1 -1 -1 -1 -1 -2 -2 -3 -3 -3 -3 -2 -2 -2 -1 -1 -1 -0 -0 -0 -0 0 -0 -0 -1 -1 -2 -3 -4 -3 -3 -3 -4 -3
-0 -0 -0 0 0 0 0 0 0 0 0 0 -0 -0 -0 -1 -1 -1 -1 -2 -2 -2 -2 -2 -2 -3 -3 -3 -3 -3 -2 -2 -2 -1 -1 -1 -1 -1 -1 -1 -1 -2 -2 -3 -3 -3 -3 -2 -2 -2 -1 -1 -1 -0 -0 -0 -0 -0 -0 -0 -1 -2 -3 -3 -3 -3 -3 -3 -3
-0 -0 0 0 0 0 0 0 0 0 0 0 -0 -0 -0 -1 -1 -1 -1 -2 -2 -2 -2 -2 -2 -2 -3 -3 -3 -3 -2 -2 -2 -1 -1 -1 -1 -1 -1 -1 -1 -2 -2 -3 -3 -3 -3 -3 -2 -2 -2 -1 -1 -1 -0 -0 -0 -0 -0 -0 -1 -1 -2 -3 -3 -3 -3 -3 -2
0 0 0 0 0 0 0 0 0 0 1 0 0 -0 -0 -1 -1 -1 -1 -1 -2 -2 -2 -2 -2 -2 -3 -3 -3 -3 -3 -2 -2 -1 -1 -1 -1 -1 -1 -1 -1 -1 -2 -2 -3 -3 -3 -3 -3 -2 -2 -2 -1 -1 -1 -0 -0 -0 -0 -0 -0 -1 -1 -2 -2 -3 -3 -3 -2
0 0 0 0 1 1 0 0 0 0 1 1 0 -0 -0 -0 -1 -1 -1 -1 -2 -2 -2 -2 -3 -3 -2 -2 -3 -3 -3 -2 -2 -2 -1 -1 -1 -1 -1 -1 -1 -1 -1 -2 -2 -3 -3 -3 -3 -3 -2 -2 -1 -1 -1 -0 -0 -0 -0 -0 -0 -0 -1 -1 -2 -3 -3 -3 -3
0 -0 0 1 1 1 0 0 0 1 1 0 0 0 -0 -0 -1 -1 -1 -1 -2 -2 -2 -2 -2 -2 -2 -2 -2 -2 -3 -3 -2 -2 -2 -2 -1 -1 -1 -1 -1 -1 -1 -1 -2 -2 -3 -3 -3 -3 -3 -2 -2 -1 -1 -1 -0 -0 -0 -0 -0 -0 -0 -1 -1 -2 -2 -3 -3
0 0 0 1 1 1 0 0 1 1 1 0 0 0 0 -0 -1 -1 -1 -1 -1 -2 -2 -2 -2 -2 -2 -2 -2 -2 -2 -2 -2 -2 -2 -2 -1 -1 -1 -1 -1 -1 -1 -1 -1 -2 -2 -3 -3 -3 -3 -3 -2 -2 -1 -1 -1 -0 -0 -0 -0 -0 -0 -1 -1 -1 -2 -2 -3
0 0 0 1 1 1 1 1 1 1 1 1 0 0 0 -0 -0 -1 -1 -1 -1 -1 -1 -2 -2 -2 -2 -2 -2 -2 -2 -2 -2 -2 -2 -2 -1 -1 -1 -1 -1 -0 -0 -1 -1 -1 -1 -2 -2 -3 -3 -3 -2 -2 -2 -1 -1 -1 -0 -1 -0 -0 -0 -0 -0 -1 -1 -1 -2
0 0 0 1 1 1 1 1 1 1 1 1 1 0 0 -0 -0 -1 -1 -1 -1 -1 -1 -1 -2 -2 -2 -2 -2 -2 -2 -2 -2 -2 -2 -2 -2 -1 -1 -1 -1 -1 -0 -0 -0 -0 -1 -1 -2 -2 -2 -3 -3 -2 -2 -1 -1 -1 -1 -1 -0 -0 -0 -0 -0 -0 -0 -1 -1
0 0 0 0 1 1 1 1 1 1 1 1 1 0 0 -0 -0 -0 -1 -1 -1 -1 -1 -1 -1 -1 -2 -2 -2 -2 -2 -2 -1 -2 -2 -2 -2 -2 -2 -1 -1 -1 -1 -0 -0 -0 -0 -0 -1 -1 -2 -2 -2 -2 -2 -2 -1 -1 -1 -1 -1 -0 -0 -0 -0 -0 -0 -0 -1
1 0 0 0 1 1 1 0 1 1 1 1 1 0 0 -0 -0 -0 -1 -1 -1 -1 -1 -1 -1 -1 -1 -1 -1 -2 -2 -2 -1 -1 -2 -2 -2 -2 -2 -2 -1 -1 -1 -1 -0 -0 -0 -0 -0 -0 -1 -1 -2 -2 -2 -2 -2 -1 -1 -1 -1 -1 -0 -0 -0 -0 -0 -0 -1
0 0 1 1 1 0 0 0 0 0 0 0 0 0 -0 -0 -0 -1 -1 -1 -0 -0 -0 -1 -1 -1 -1 -1 -1 -2 -2 -2 -1 -1 -1 -1 -1 -1 -1 -1 -1 -2 -2 -1 -1 -0 -0 0 0 0 0 -0 -1 -1 -1 -2 -2 -2 -1 -1 -1 -1 -0 -0 -0 -0 -0 -0 -0
0 1 1 0 0 0 0 0 0 0 0 0 -0 -0 -0 -0 -0 -1 -1 -0 -0 -0 -0 -0 -0 -1 -1 -1 -1 -1 -2 -2 -2 -2 -1 -1 -1 -1 -1 -1 -1 -1 -2 -2 -1 -1 -1 -0 0 1 1 1 0 -0 -1 -1 -1 -1 -1 -1 -1 -1 -1 -0 -0 -0 0 0 0
1 1 0 0 0 0 0 0 0 0 0 -0 -0 -0 -0 -0 -1 -1 -1 -1 -0 -0 -0 -0 -0 -0 -1 -1 -1 -1 -1 -2 -2 -2 -2 -1 -1 -1 -1 -1 -1 -1 -1 -1 -1 -1 -1 -1 -0 0 1 1 1 1 0 -0 -0 -1 -1 -1 -1 -1 -1 -1 -0 -0 -0 0 0
1 0 0 0 0 0 -0 0 0 -0 -0 -0 -0 -0 -0 -1 -1 -1 -1 -1 -0 -0 -0 -0 -0 -0 -1 -1 -1 -1 -1 -1 -2 -2 -2 -2 -1 -1 -1 -1 -1 -1 -1 -1 -1 -1 -1 -1 -0 -0 -0 0 1 1 1 1 0 -0 -0 -1 -1 -1 -1 -1 -1 -0 -0 -0 0
0 0 0 -0 -0 -0 0 -0 -0 -0 -0 -0 -0 -0 -0 -1 -1 -1 -1 -1 -1 -0 -0 0 -0 -0 -1 -1 -1 -1 -1 -1 -1 -1 -2 -2 -1 -1 -1 -1 -1 -1 -1 -1 -1 -1 -1 -1 -1 -1 -0 -0 -0 0 0 0 0 0 0 -0 -0 -0 -0 -1 -1 -1 -0 -0 -0
0 0 -0 -1 -0 -0 -0 -0 -0 -0 -0 -0 -0 -1 -1 -1 -1 -1 -1 -1 -1 -0 -0 0 0 -0 -0 -1 -1 -1 -1 -1 -1 -1 -1 -2 -1 -1 -1 -1 -1 -1 -1 -1 -1 -1 -1 -1 -1 -1 -1 -0 -0 -0 -0 -0 -0 -0 0 0 0 0 0 -0 -0 -0 -0 -0 -0
0 -0 -0 -0 -0 -0 -1 -1 -0 -0 -0 -1 -1 -1 -1 -1 -1 -1 -1 -1 -1 -0 -0 -0 0 0 0 -0 -1 -1 -2 -1 -1 -1 -1 -1 -1 -1 -1 -1 -1 -1 -1 -1 -1 -1 -1 -1 -1 -1 -1 -0 -0 -1 -1 -1 -1 -1 -0 -0 -0 0 0 0 0 0 -0 -0 -0
-0 -0 -0 -0 -0 -1 -1 -0 -0 -1 -1 -1 -1 -1 -1 -1 -1 -1 -1 -1 -1 -0 -0 -0 0 0 1 -0 -1 -1 -1 -1 -1 -1 -1 -1 -1 -1 -1 -1 -1 -1 -1 -1 -1 -1 -1 -1 -1 -1 -1 -0 -0 -1 -1 -1 -1 -1 -1 -1 -1 -0 -0 0 0 0 0 0 0
-0 -0 -0 -0 -1 -1 -1 -1 -1 -1 -1 -1 -1 -1 -1 -1 -1 -1 -1 -1 -0 -0 -0 0 1 1 0 0 -0 -0 -1 -1 -1 -1 -1 -1 -1 -1 -1 -1 -1 -1 -1 -1 -1 -1 -1 -1 -1 -1 -1 -1 -1 -1 -1 -1 -1 -1 -1 -1 -1 -1 -0 -0 0 0 1 0 0
0 -0 -0 -1 -1 -1 -1 -1 -1 -1 -1 -1 -1 -1 -1 -1 -1 -1 -1 -1 -0 -0 -0 0 0 0 0 0 1 0 -0 -1 -1 -1 -1 -1 -1 -1 -1 -1 -1 -1 -1 -1 -1 -1 -1 -1 -1 -1 -1 -1 -1 -1 -1 -1 -1 -1 -1 -1 -1 -1 -1 -0 -0 -0 0 0 1
-0 -0 -0 -0 -1 -1 -1 -1 -1 -1 -1 -1 -1 -1 -1 -1 -1 -1 -1 -0 -0 -0 -0 0 0 0 0 0 1 1 0 0 -0 -0 -1 -1 -1 -1 -1 -1 -1 -1 -0 -0 -1 -1 -1 -1 -1 -2 -2 -2 -2 -1 -1 -1 -1 -1 -1 -1 -1 -1 -1 -1 -0 -0 -0 0 0
-0 -0 -0 -0 -1 -1 -1 -1 -1 -1 -1 -1 -1 -1 -1 -1 -1 -1 -1 -0 -0 -0 -0 -0 -0 -0 -0 -0 0 0 0 0 0 0 -0 -0 -0 -1 -1 -1 -1 -1 -0 -0 -1 -1 -1 -1 -1 -2 -2 -2 -2 -2 -2 -2 -2 -1 -1 -1 -1 -1 -1 -1 -0 -0 -0 -0 -0
-0 -0 -0 -0 -1 -1 -1 -1 -1 -1 -1 -1 -1 -1 -1 -1 -1 -1 -1 -1 -0 -0 -0 -0 -0 -0 -0 -0 -0 -0 -0 -0 0 0 0 0 -0 -0 -0 -1 -1 -0 -0 -0 -1 -1 -1 -1 -1 -1 -2 -2 -2 -2 -2 -2 -2 -2 -2 -2 -1 -1 -1 -1 -1 -0 -0 -0 -0
-0 -0 -0 -0 -1 -1 -1 -1 -1 -1 -1 -1 -1 -1 -1 -1 -1 -1 -1 -1 -0 -0 -0 -0 -1 -1 -0 -0 -0 -0 -0 -0 -0 0 0 0 0 0 -0 -0 -0 -0 -0 -0 -1 -1 -1 -1 -1 -1 -1 -1 -2 -2 -2 -2 -2 -2 -2 -2 -2 -1 -1 -1 -1 -1 -0 -0 -0
-0 0 -0 -0 -0 -1 -1 -1 -1 -1 -1 -1 -1 -1 -1 -1 -1 -1 -0 -0 -0 -0 -0 -1 -1 -0 -0 -0 -0 -0 -0 -0 -0 -0 -0 0 0 0 -0 -0 -0 -0 -0 -0 -1 -1 -1 -1 -1 -1 -1 -1 -1 -1 -1 -1 -1 -1 -1 -2 -2 -2 -2 -1 -1 -1 -1 -0 -0
-0 0 -0 -0 -0 -0 -1 -1 -1 -1 -1 -1 -1 -1 -1 -1 -1 -1 -0 -0 0 -0 -0 -1 -0 -0 -0 -0 -0 -0 -0 -0 -0 -0 -0 -0 0 -0 -0 -0 -0 -0 -0 -0 -0 -1 -1 -0 -0 -0 -0 -0 -1 -1 -1 -1 -1 -1 -1 -1 -1 -1 -2 -2 -2 -1 -1 -1 -1
-0 -0 -0 -0 -0 -0 -1 -1 -1 -1 -1 -1 -1 -1 -1 -0 -0 -0 -0 0 0 0 -0 -0 -0 -0 -1 -1 -0 -0 -0 -0 -0 -0 -0 -0 -0 -0 -0 -1 -1 -1 -0 -0 -0 -0 -0 -0 0 0 0 0 -0 -1 -1 -1 -1 -1 -1 -1 -1 -1 -1 -1 -1 -2 -1 -1 -1
-0 -0 -0 -0 -0 -0 -0 -0 -0 -1 -1 -1 -1 -0 -0 -0 -0 -0 -0 -0 0 0 -0 -0 -0 -1 -1 -0 -0 -0 -0 -0 -0 -0 -0 -1 -1 -1 -1 -1 -1 -1 -1 -0 -0 -0 0 0 0 1 1 1 0 -0 -0 -0 -0 -1 -1 -1 -1 -1 -1 -1 -1 -1 -1 -2 -1
-0 -0 -0 0 -0 -0 -0 -0 -0 -0 -1 -0 -0 -0 -0 -0 0 0 0 0 0 0 0 -0 -0 -1 -0 -0 -0 -0 -1 -1 -1 -0 -1 -1 -1 -1 -1 -1 -1 -1 -1 -0 0 0 0 0 0 1 1 1 1 0 0 0 -0 -0 -1 -1 -0 -1 -1 -1 -1 -1 -1 -1 -1
-0 -0 0 -0 -0 0 0 -0 -0 -0 -0 -0 -0 -0 -0 0 1 1 1 0 0 0 -0 -0 -0 -0 -0 -0 -0 -0 -1 -1 -1 -1 -1 -1 -1 -1 -1 -1 -1 -1 -1 -1 -0 0 0 0 0 0 0 0 0 0 0 0 -0 -0 -1 -1 -0 -0 -0 -1 -1 -0 -1 -1 -1
Height
5698 5698 5698 5698 5698 5698 5698 5698 5698 5697 5697 5697 5696 5696 5696 5695 5695 5694 5693 5693 5692 5691 5691 5690 5689 5688 5687 5687 5686 5685 5684 5683 5682 5680 5679 5678 5677 5676 5674 5673 5671 5670 5668 5667 5665 5664 5662 5660 5658 5656 5655 5653 5651 5649 5647 5645 5644 5642 5639 5637 5635 5633 5630 5628 5625 5623 5620 5618 5615
5696 5696 5696 5696 5696 5696 5696 5696 5695 5695 5695 5695 5694 5694 5694 5693 5693 5692 5692 5691 5690 5689 5689 5688 5687 5687 5686 5685 5684 5683 5682 5681 5680 5679 5678 5677 5676 5674 5673 5671 5670 5669 5667 5665 5664 5662 5661 5659 5657 5656 5654 5652 5650 5649 5647 5645 5643 5641 5639 5637 5635 5633 5631 5628 5626 5623 5620 5618 5615
5694 5694 5694 5694 5694 5694 5694 5694 5694 5694 5693 5693 5693 5692 5692 5691 5691 5690 5690 5689 5689 5688 5687 5686 5686 5685 5684 5684 5683 5682 5681 5680 5679 5678 5677 5676 5674 5673 5672 5670 5669 5667 5666 5664 5663 5661 5659 5658 5656 5655 5653 5652 5650 5648 5646 5644 5642 5641 5639 5637 5635 5633 5631 5629 5626 5623 5620 5618 5615
5691 5692 5692 5692 5692 5692 5692 5692 5692 5691 5691 5691 5690 5690 5690 5689 5689 5689 5688 5687 5687 5686 5685 5685 5684 5683 5683 5682 5681 5680 5679 5679 5678 5676 5675 5674 5673 5672 5670 5669 5668 5666 5665 5663 5662 5660 5659 5657 5655 5654 5653 5651 5649 5648 5646 5644 5642 5640 5639 5637 5635 5633 5631 5629 5626 5624 5621 5619 5616
5689 5689 5689 5689 5690 5690 5690 5689 5689 5689 5689 5689 5689 5688 5688 5688 5687 5687 5686 5686 5685 5684 5684 5683 5682 5682 5681 5680 5680 5679 5678 5677 5676 5675 5674 5673 5672 5670 5669 5668 5666 5665 5664 5662 5661 5659 5658 5656 5654 5653 5652 5650 5649 5647 5645 5644 5642 5640 5638 5636 5634 5633 5631 5629 5627 5624 5622 5619 5617
5687 5687 5687 5687 5688 5688 5688 5688 5687 5687 5687 5687 5687 5686 5686 5686 5685 5685 5684 5684 5683 5682 5682 5681 5680 5680 5679 5679 5678 5677 5676 5676 5675 5674 5673 5672 5670 5669 5668 5667 5665 5664 5662 5661 5659 5658 5657 5655 5654 5652 5650 5649 5648 5646 5644 5643 5641 5640 5638 5636 5634 5633 5631 5629 5627 5625 5622 5620 5617
5684 5685 5685 5685 5685 5685 5685 5685 5685 5685 5685 5685 5685 5684 5684 5684 5684 5683 5683 5682 5681 5681 5680 5679 5679 5678 5678 5677 5676 5676 5675 5674 5673 5672 5671 5670 5669 5668 5667 5665 5664 5663 5661 5660 5659 5657 5656 5654 5653 5651 5650 5648 5647 5645 5644 5642 5641 5639 5638 5636 5634 5632 5631 5629 5627 5625 5623 5621 5618
5682 5683 5683 5683 5683 5683 5683 5683 5683 5683 5683 5683 5683 5683 5682 5682 5681 5681 5680 5680 5679 5679 5678 5678 5677 5676 5676 5675 5675 5674 5673 5673 5672 5671 5670 5669 5668 5667 5665 5664 5663 5662 5660 5659 5657 5656 5655 5653 5652 5650 5649 5648 5646 5645 5643 5642 5640 5639 5637 5636 5634 5632 5631 5629 5628 5626 5624 5621 5619
5680 5680 5680 5680 5681 5681 5681 5681 5681 5681 5681 5681 5681 5680 5680 5680 5679 5679 5679 5678 5678 5677 5676 5676 5675 5674 5674 5674 5673 5672 5672 5671 5670 5669 5668 5667 5666 5665 5664 5663 5662 5660 5659 5658 5656 5655 5654 5653 5651 5650 5649 5647 5646 5644 5643 5641 5640 5639 5637 5636 5634 5632 5631 5629 5628 5626 5624 5622 5620
5678 5678 5678 5678 5679 5679 5679 5679 5679 5679 5679 5679 5679 5678 5678 5678 5677 5677 5677 5676 5676 5675 5674 5674 5674 5673 5672 5672 5671 5670 5670 5669 5668 5668 5667 5666 5665 5664 5663 5662 5660 5659 5658 5657 5655 5654 5653 5652 5650 5649 5648 5646 5645 5644 5642 5641 5639 5638 5637 5635 5634 5633 5631 5629 5628 5626 5625 5623 5621
5675 5675 5676 5676 5676 5676 5676 5677 5677 5677 5677 5677 5676 5676 5676 5676 5675 5675 5674 5674 5674 5673 5673 5672 5672 5671 5670 5670 5669 5669 5668 5667 5667 5666 5665 5664 5663 5662 5661 5660 5659 5658 5657 5655 5654 5653 5652 5651 5649 5648 5647 5646 5644 5643 5642 5640 5639 5638 5637 5635 5634 5633 5631 5629 5628 5627 5625 5624 5622
5672 5673 5673 5674 5674 5674 5674 5674 5674 5674 5674 5674 5674 5674 5674 5674 5673 5673 5673 5672 5672 5672 5671 5670 5670 5669 5669 5668 5668 5667 5666 5666 5665 5664 5664 5663 5662 5661 5660 5659 5658 5657 5656 5654 5653 5652 5651 5650 5649 5648 5646 5645 5644 5643 5641 5640 5639 5638 5636 5635 5634 5632 5631 5630 5629 5627 5626 5624 5623
5670 5670 5671 5671 5671 5672 5672 5672 5672 5672 5672 5672 5672 5672 5672 5671 5671 5671 5671 5670 5670 5670 5669 5669 5668 5668 5667 5666 5666 5665 5664 5664 5663 5663 5662 5661 5660 5659 5659 5658 5657 5656 5654 5653 5652 5651 5650 5649 5648 5647 5645 5644 5643 5642 5641 5640 5639 5637 5636 5635 5634 5632 5631 5630 5629 5628 5626 5625 5624
5667 5668 5668 5669 5669 5669 5669 5670 5670 5670 5670 5670 5670 5670 5669 5669 5669 5669 5669 5669 5668 5668 5667 5667 5666 5666 5665 5664 5664 5663 5663 5662 5662 5661 5660 5660 5659 5658 5657 5656 5655 5654 5653 5652 5651 5650 5649 5648 5647 5646 5645 5644 5643 5641 5640 5639 5638 5637 5636 5635 5634 5632 5631 5630 5629 5628 5627 5625 5624
5664 5665 5665 5666 5666 5667 5667 5667 5668 5668 5668 5668 5668 5668 5668 5667 5667 5667 5667 5667 5666 5666 5666 5665 5665 5664 5664 5663 5662 5662 5661 5660 5660 5659 5659 5658 5658 5657 5656 5655 5654 5653 5652 5651 5650 5649 5648 5647 5646 5645 5644 5643 5642 5641 5640 5639 5638 5637 5636 5635 5634 5632 5631 5630 5629 5628 5627 5626 5625
5662 5662 5663 5663 5664 5664 5664 5665 5665 5665 5665 5665 5665 5665 5665 5665 5665 5665 5665 5664 5664 5664 5664 5663 5663 5662 5662 5661 5660 5660 5659 5659 5658 5658 5657 5657 5656 5655 5655 5654 5653 5652 5651 5650 5649 5648 5647 5646 5645 5644 5643 5642 5641 5640 5639 5638 5637 5636 5635 5634 5633 5632 5631 5630 5629 5629 5628 5627 5625
5659 5660 5660 5661 5661 5662 5662 5662 5663 5663 5663 5663 5663 5663 5663 5663 5663 5663 5663 5663 5662 5662 5662 5661 5661 5660 5660 5659 5659 5658 5658 5657 5657 5656 5655 5655 5654 5654 5653 5653 5652 5651 5650 5649 5649 5647 5646 5645 5644 5643 5642 5641 5640 5639 5639 5638 5637 5636 5635 5634 5633 5632 5631 5630 5629 5629 5628 5627 5626
5657 5657 5658 5658 5659 5659 5659 5660 5660 5660 5661 5661 5661 5661 5661 5661 5661 5661 5661 5660 5660 5660 5660 5659 5659 5659 5658 5658 5657 5657 5656 5655 5655 5654 5654 5653 5653 5652 5652 5651 5650 5649 5649 5648 5647 5647 5646 5645 5644 5643 5642 5641 5640 5639 5638 5637 5636 5635 5634 5634 5633 5632 5631 5630 5629 5629 5628 5627 5627
5654 5654 5655 5655 5656 5656 5657 5657 5658 5658 5658 5658 5659 5659 5659 5659 5659 5659 5659 5659 5658 5658 5658 5658 5657 5657 5656 5656 5655 5655 5654 5654 5653 5653 5652 5652 5651 5650 5650 5649 5649 5648 5647 5647 5646 5645 5645 5644 5643 5642 5641 5640 5639 5638 5637 5636 5636 5635 5634 5633 5632 5632 5631 5630 5629 5629 5628 5627 5627
5651 5652 5652 5653 5653 5654 5654 5654 5655 5655 5655 5656 5656 5656 5656 5656 5656 5656 5656 5656 5656 5656 5656 5656 5655 5655 5654 5654 5654 5653 5652 5652 5651 5651 5650 5650 5649 5649 5648 5648 5647 5646 5646 5645 5645 5644 5644 5643 5642 5641 5640 5639 5639 5638 5637 5636 5635 5634 5634 5633 5632 5631 5630 5630 5629 5629 5628 5627 5627
5648 5649 5649 5650 5650 5651 5651 5652 5652 5653 5653 5653 5654 5654 5654 5654 5654 5654 5654 5654 5654 5654 5654 5654 5653 5653 5652 5652 5652 5651 5650 5650 5649 5649 5649 5648 5648 5647 5646 5646 5645 5645 5644 5644 5644 5643 5642 5642 5641 5640 5640 5639 5638 5637 5636 5635 5634 5634 5633 5632 5631 5631 5630 5629 5629 5628 5628 5627 5627
5645 5646 5646 5647 5648 5648 5649 5649 5649 5650 5650 5651 5651 5651 5651 5652 5652 5652 5652 5652 5652 5652 5652 5651 5651 5651 5650 5650 5649 5649 5649 5648 5648 5647 5647 5646 5646 5645 5645 5644 5644 5643 5643 5642 5642 5641 5641 5640 5640 5639 5639 5638 5638 5637 5636 5634 5634 5633 5632 5631 5631 5630 5629 5629 5628 5628 5627 5627 5626
5643 5643 5644 5644 5645 5645 5646 5646 5647 5647 5648 5648 5649 5649 5649 5649 5649 5649 5649 5649 5649 5649 5649 5649 5649 5649 5648 5648 5647 5647 5647 5646 5646 5645 5645 5644 5644 5644 5643 5643 5642 5642 5641 5641 5640 5640 5639 5639 5639 5638 5638 5637 5637 5636 5635 5634 5633 5632 5631 5631 5630 5629 5629 5628 5628 5627 5627 5626 5626
5639 5640 5641 5641 5642 5643 5643 5644 5644 5645 5645 5645 5646 5646 5646 5647 5647 5647 5647 5647 5647 5647 5647 5647 5646 5646 5646 5645 5645 5645 5644 5644 5644 5644 5643 5643 5642 5642 5641 5641 5640 5640 5639 5639 5639 5638 5638 5638 5637 5637 5636 5636 5636 5635 5634 5634 5633 5632 5631 5630 5629 5629 5628 5628 5627 5627 5626 5626 5626
5637 5637 5638 5639 5639 5640 5640 5641 5642 5642 5643 5643 5643 5644 5644 5644 5644 5644 5644 5645 5645 5645 5645 5644 5644 5644 5644 5643 5643 5643 5642 5642 5642 5641 5641 5641 5640 5640 5639 5639 5639 5638 5638 5638 5637 5637 5636 5636 5635 5635 5635 5634 5634 5634 5633 5633 5632 5631 5630 5630 5629 5628 5628 5627 5626 5626 5626 5625 5625
5634 5634 5635 5636 5636 5637 5638 5638 5639 5639 5640 5640 5641 5641 5641 5642 5642 5642 5642 5642 5642 5642 5642 5642 5642 5642 5641 5641 5641 5640 5640 5640 5640 5639 5639 5639 5638 5638 5638 5637 5637 5637 5636 5636 5635 5635 5635 5634 5634 5634 5633 5633 5633 5632 5632 5631 5631 5630 5629 5629 5628 5628 5627 5626 5626 5625 5625 5624 5624
5631 5632 5632 5633 5634 5634 5635 5636 5636 5637 5637 5638 5638 5639 5639 5639 5639 5639 5640 5640 5640 5640 5640 5640 5639 5639 5639 5639 5639 5638 5638 5638 5638 5637 5637 5637 5636 5636 5636 5635 5635 5635 5634 5634 5634 5634 5633 5633 5632 5632 5632 5631 5631 5631 5630 5630 5629 5629 5629 5628 5628 5627 5627 5626 5625 5625 5624 5624 5623
5628 5629 5629 5630 5631 5632 5632 5633 5634 5634 5634 5635 5635 5636 5636 5636 5637 5637 5637 5637 5637 5637 5637 5637 5637 5637 5637 5637 5636 5636 5636 5636 5635 5635 5635 5634 5634 5634 5634 5634 5633 5633 5633 5632 5632 5632 5632 5631 5631 5630 5630 5630 5629 5629 5629 5628 5628 5628 5627 5627 5626 5626 5626 5625 5625 5624 5624 5623 5623
5625 5626 5626 5627 5628 5629 5629 5630 5631 5631 5632 5632 5633 5633 5634 5634 5634 5634 5634 5635 5635 5635 5635 5635 5635 5635 5634 5634 5634 5634 5634 5634 5633 5633 5633 5633 5632 5632 5632 5632 5631 5631 5631 5631 5630 5630 5630 5630 5629 5629 5629 5628 5628 5628 5627 5627 5627 5626 5626 5625 5625 5625 5624 5624 5624 5624 5623 5623 5622
5622 5623 5624 5624 5625 5626 5626 5627 5628 5628 5629 5629 5630 5630 5631 5631 5632 5632 5632 5632 5632 5632 5632 5632 5632 5632 5632 5632 5632 5632 5632 5631 5631 5631 5631 5630 5630 5630 5630 5629 5629 5629 5629 5629 5629 5628 5628 5628 5628 5627 5627 5627 5626 5626 5626 5626 5625 5625 5624 5624 5624 5624 5623 5623 5623 5623 5622 5622 5621
5619 5620 5621 5621 5622 5623 5624 5624 5625 5625 5626 5626 5627 5628 5628 5629 5629 5629 5629 5629 5630 5630 5630 5630 5630 5630 5630 5630 5630 5630 5630 5629 5629 5629 5629 5629 5628 5628 5628 5628 5627 5627 5627 5627 5627 5626 5626 5626 5626 5626 5625 5625 5625 5624 5624 5624 5624 5624 5623 5623 5623 5622 5622 5622 5622 5621 5621 5621 5620
5616 5617 5618 5618 5619 5620 5620 5621 5622 5622 5623 5624 5624 5625 5625 5626 5626 5626 5627 5627 5627 5627 5627 5627 5627 5628 5628 5628 5628 5628 5628 5627 5627 5627 5627 5627 5626 5626 5626 5626 5625 5625 5625 5625 5625 5625 5624 5624 5624 5624 5624 5624 5623 5623 5623 5623 5622 5622 5622 5622 5621 5621 5621 5621 5620 5620 5620 5620 5619
5613 5614 5615 5615 5616 5617 5618 5618 5619 5619 5620 5621 5621 5622 5623 5623 5623 5624 5624 5624 5624 5624 5624 5625 5625 5625 5625 5625 5625 5625 5625 5625 5625 5625 5625 5624 5624 5624 5624 5624 5624 5624 5623 5623 5623 5623 5623 5623 5622 5622 5622 5622 5621 5621 5621 5621 5621 5621 5620 5620 5620 5620 5620 5619 5619 5619 5619 5619 5618
5610 5611 5612 5612 5613 5614 5615 5615 5616 5617 5617 5618 5619 5619 5620 5620 5620 5621 5621 5621 5621 5622 5622 5622 5622 5622 5623 5623 5623 5623 5623 5623 5623 5623 5623 5623 5622 5622 5622 5622 5622 5622 5621 5621 5621 5621 5621 5621 5620 5620 5620 5620 5620 5619 5619 5619 5619 5619 5619 5619 5619 5619 5619 5618 5618 5618 5618 5617 5617
5607 5608 5609 5609 5610 5611 5612 5613 5613 5614 5614 5615 5616 5616 5617 5617 5618 5618 5618 5619 5619 5619 5619 5619 5619 5619 5620 5620 5620 5620 5620 5620 5620 5620 5620 5620 5620 5620 5620 5620 5620 5620 5619 5619 5619 5619 5619 5619 5619 5619 5619 5618 5618 5618 5618 5618 5618 5617 5617 5617 5617 5617 5617 5617 5617 5617 5616 5616 5616
5604 5605 5606 5606 5607 5608 5609 5609 5610 5611 5611 5612 5613 5613 5614 5614 5615 5615 5615 5616 5616 5616 5616 5617 5617 5617 5617 5617 5618 5618 5618 5618 5618 5618 5618 5618 5618 5618 5618 5618 5618 5618 5618 5618 5617 5617 5617 5617 5617 5617 5617 5617 5616 5616 5616 5616 5616 5616 5616 5616 5616 5615 5615 5615 5615 5615 5615 5615 5615
5601 5602 5603 5604 5604 5605 5606 5607 5607 5608 5609 5609 5610 5610 5611 5612 5612 5612 5613 5613 5614 5614 5614 5614 5614 5614 5615 5615 5615 5615 5615 5615 5615 5615 5616 5616 5616 5616 5616 5616 5616 5616 5616 5615 5615 5615 5615 5615 5615 5615 5615 5615 5615 5615 5615 5615 5614 5614 5614 5614 5614 5614 5614 5614 5614 5614 5614 5613 5613
5598 5599 5599 5600 5601 5602 5603 5604 5604 5605 5606 5606 5607 5608 5609 5609 5609 5610 5610 5610 5611 5611 5611 5612 5612 5612 5612 5612 5613 5613 5613 5613 5613 5613 5613 5613 5613 5614 5614 5614 5614 5614 5614 5614 5614 5613 5614 5614 5614 5614 5614 5613 5613 5613 5613 5613 5613 5613 5613 5613 5613 5612 5612 5612 5612 5612 5612 5612 5612
5594 5596 5597 5598 5598 5599 5600 5601 5601 5602 5603 5604 5604 5605 5606 5606 5607 5607 5607 5608 5608 5608 5609 5609 5609 5609 5609 5610 5610 5610 5610 5610 5610 5611 5611 5611 5611 5611 5611 5611 5611 5611 5611 5611 5611 5611 5611 5611 5611 5612 5612 5612 5612 5612 5612 5612 5612 5612 5611 5611 5611 5611 5611 5610 5610 5610 5610 5610 5610
5591 5592 5594 5594 5595 5596 5597 5598 5599 5599 5600 5601 5602 5602 5603 5604 5604 5604 5604 5605 5605 5606 5606 5606 5607 5607 5607 5607 5607 5608 5608 5608 5608 5608 5608 5608 5608 5609 5609 5609 5609 5609 5609 5609 5609 5609 5609 5609 5609 5609 5609 5609 5609 5609 5610 5610 5610 5610 5610 5610 5609 5609 5609 5609 5609 5609 5609 5608 5608
5588 5589 5590 5591 5592 5593 5594 5595 5596 5597 5598 5598 5599 5599 5600 5601 5601 5601 5602 5602 5603 5603 5603 5604 5604 5604 5604 5605 5605 5605 5605 5605 5606 5606 5606 5606 5606 5606 5606 5606 5606 5606 5606 5607 5607 5607 5607 5607 5607 5607 5607 5607 5607 5607 5608 5608 5608 5608 5608 5608 5608 5608 5608 5608 5607 5607 5607 5607 5606